This is the latest recevied weather packets stored in our database for station/object SP2CDN-10. If no packets are shown the sender has not sent any weather packets the latest 10 day(s).
| Time | Temp. | Humidity | Pressure | Rain* | Wind** | Luminosity | Snow |
|---|---|---|---|---|---|---|---|
| 1777435362 | -1.11° C | 97% | 1027.1 hPa | - | - | - | - |
| 1777433080 | -1.67° C | 97% | 1027 hPa | - | - | - | - |
| 1777430799 | -1.11° C | 94% | 1026.8 hPa | - | - | - | - |
| 1777429426 | -1.11° C | 93% | 1026.7 hPa | - | - | - | - |
| 1777427145 | -1.11° C | 88% | 1026.8 hPa | - | - | - | - |
| 1777424863 | -1.11° C | 83% | 1026.6 hPa | - | - | - | - |
| 1777422582 | -0.56° C | 79% | 1026.7 hPa | - | - | - | - |
| 1777420301 | 0° C | 67% | 1026.7 hPa | - | - | - | - |
| 1777418019 | 0.56° C | 59% | 1026.6 hPa | - | - | - | - |
| 1777415737 | 0.56° C | 57% | 1026.3 hPa | - | - | - | - |
| 1777413456 | 1.11° C | 50% | 1026.1 hPa | - | - | - | - |
| 1777411174 | 1.67° C | 47% | 1025.8 hPa | - | - | - | - |
| 1777408893 | 2.78° C | 45% | 1025.6 hPa | - | - | - | - |
| 1777406611 | 3.89° C | 42% | 1025.2 hPa | - | - | - | - |
| 1777404329 | 5° C | 42% | 1025 hPa | - | - | - | - |
| 1777402048 | 6.11° C | 40% | 1024.7 hPa | - | - | - | - |
| 1777399766 | 7.78° C | 38% | 1024.4 hPa | - | - | - | - |
| 1777397485 | 9.44° C | 34% | 1023.8 hPa | - | - | - | - |
| 1777395203 | 12.78° C | 29% | 1023.4 hPa | - | - | - | - |
| 1777392921 | 12.78° C | 30% | 1023 hPa | - | - | - | - |
| 1777390640 | 18.89° C | 24% | 1022.9 hPa | - | - | - | - |
| 1777388358 | 16.67° C | 23% | 1022.9 hPa | - | - | - | - |
| 1777386077 | 12.78° C | 23% | 1023 hPa | - | - | - | - |
| 1777383795 | 14.44° C | 23% | 1023.2 hPa | - | - | - | - |
| 1777381514 | 13.89° C | 22% | 1023.5 hPa | - | - | - | - |
* Rain since midnight (hover to see other rain measurements)
** Current wind speed in m/s (hover to see current wind gust speed)